{"data":{"norad_id":82494,"epoch":"2026-05-24T00:06:15.207552Z","epoch_age_seconds":157227,"freshness":"FRESH","line1":"1 82494U          26144.00434268  .00012466  00000+0  12178-2 0  9990","line2":"2 82494  74.0050  56.8121 0009280 171.1881 188.9466 14.92399924109121","mean_motion":14.92399924,"eccentricity":0.000928,"inclination_deg":74.005,"raan_deg":56.8121,"arg_perigee_deg":171.1881,"mean_anomaly_deg":188.9466,"bstar":0.0012178,"rev_number":10912,"period_min":96.488881890348,"perigee_km":583.98800463706,"apogee_km":596.92171112529,"semimajor_km":6968.5918578812,"source":"CELESTRAK","updated_at":"2026-05-25T13:38:11.190366Z"}}